This is the latest recevied weather packets stored in our database for station/object KD8NVS-13. If no packets are shown the sender has not sent any weather packets the latest 1 day(s).
| Time | Temp. | Humidity | Pressure | Rain* | Wind** | Luminosity | Snow |
|---|---|---|---|---|---|---|---|
| 1777998721 | 22.22° C | 59% | 999.3 hPa | 0 mm | 0.89 m/s, 254° | 284 W/m² | - |
| 1777998418 | 22.22° C | 58% | 999 hPa | 0 mm | 2.68 m/s, 245° | 293 W/m² | - |
| 1777998115 | 22.22° C | 59% | 999 hPa | 0 mm | 1.34 m/s, 295° | 295 W/m² | - |
| 1777997812 | 22.22° C | 59% | 999.3 hPa | 0 mm | 3.13 m/s, 271° | 286 W/m² | - |
| 1777997509 | 22.22° C | 58% | 999.3 hPa | 0 mm | 1.79 m/s, 258° | 281 W/m² | - |
| 1777997207 | 21.67° C | 61% | 999.3 hPa | 0 mm | 0.89 m/s, 145° | 342 W/m² | - |
| 1777996904 | 21.67° C | 60% | 999.3 hPa | 0 mm | 2.68 m/s, 312° | 333 W/m² | - |
| 1777996601 | 21.11° C | 62% | 999.3 hPa | 0 mm | 1.34 m/s, 194° | 342 W/m² | - |
| 1777996297 | 21.11° C | 61% | 999.3 hPa | 0 mm | 1.34 m/s, 190° | 281 W/m² | - |
| 1777995993 | 21.11° C | 60% | 999.3 hPa | 0 mm | 1.34 m/s, 96° | 291 W/m² | - |
| 1777995689 | 21.11° C | 61% | 999 hPa | 0 mm | 1.79 m/s, 277° | 532 W/m² | - |
| 1777995387 | 21.11° C | 63% | 999 hPa | 0 mm | 0.89 m/s, 198° | 430 W/m² | - |
| 1777995084 | 21.11° C | 62% | 999.3 hPa | 0 mm | 1.34 m/s, 270° | 455 W/m² | - |
| 1777994780 | 21.11° C | 61% | 999.3 hPa | 0 mm | 0.89 m/s, 271° | 510 W/m² | - |
| 1777994476 | 20.56° C | 63% | 999 hPa | 0 mm | 1.79 m/s, 272° | 322 W/m² | - |
| 1777994172 | 20.56° C | 66% | 999 hPa | 0 mm | 0 m/s | 520 W/m² | - |
| 1777993869 | 20.56° C | 65% | 998.7 hPa | 0 mm | 0.89 m/s, 182° | 247 W/m² | - |
| 1777993565 | 20.56° C | 65% | 998.7 hPa | 0 mm | 0.89 m/s, 182° | 247 W/m² | - |
| 1777993262 | 20.56° C | 65% | 999 hPa | 0 mm | 0.89 m/s, 171° | 308 W/m² | - |
| 1777992958 | 19.44° C | 68% | 999 hPa | 0 mm | 0.45 m/s, 258° | 292 W/m² | - |
| 1777992656 | 19.44° C | 68% | 999 hPa | 0 mm | 0.45 m/s, 258° | 292 W/m² | - |
| 1777992354 | 19.44° C | 69% | 999 hPa | 0 mm | 0.89 m/s, 145° | 219 W/m² | - |
| 1777992051 | 18.89° C | 69% | 999 hPa | 0 mm | 0 m/s | 360 W/m² | - |
| 1777991749 | 18.33° C | 70% | 999 hPa | 0 mm | 1.34 m/s, 264° | 317 W/m² | - |
| 1777991446 | 18.33° C | 69% | 998.7 hPa | 0 mm | 1.79 m/s, 270° | 192 W/m² | - |
* Rain latest hour (hover to see other rain measurements)
** Current wind speed in m/s (hover to see current wind gust speed)